Regional Weather Roundup
Issued by NWS Cleveland, OH

Home | Current Version | Previous Version | Text Only | Print | Product List | Glossary Off
Versions: 1 2 3 4 5 6 7 8 9 10 11 12 13 14 15 16 17 18 19 20 21 22 23 24 25 26 27 28 29 30 31 32 33 34 35 36 37 38 39 40 41 42 43 44 45 46 47 48 49 50

000
ASUS41 KCLE 280402
RWRCLE
OHIO REGIONAL WEATHER ROUNDUP
NATIONAL WEATHER SERVICE CLEVELAND, OH
1200 AM EDT SAT MAR 28 2015

NOTE: "FAIR" INDICATES FEW OR NO CLOUDS BELOW 12,000 FEET WITH NO
SIGNIFICANT WEATHER AND/OR OBSTRUCTIONS TO VISIBILITY.

OHZ001>008-015>018-024>027-034-035-043-044-280500-
   NORTHWEST OHIO

CITY           SKY/WX    TMP DP  RH WIND       PRES   REMARKS
DEFIANCE       CLEAR     21  12  68 NW5       30.15R WCI  15
FINDLAY        CLEAR     22  15  75 NE7       30.11R WCI  13
TOLEDO EXPRESS CLEAR     18  10  71 N3        30.13R
TOLEDO EXEC    CLEAR     21  11  65 CALM      30.15R
LIMA           CLEAR     24  12  60 NE5       30.10R WCI  18
$$

OHZ009>014-019>023-028>033-038-089-280500-
   NORTHEAST OHIO

CITY           SKY/WX    TMP DP  RH WIND       PRES   REMARKS
CLE-HOPKINS    MOCLDY    18   9  68 N12       30.14R WCI   5
CLE-LAKEFRONT  PTCLDY    19   9  65 N16       30.12S WCI   4
CUY CO. ARPT   NOT AVBL
LORAIN-ELYRIA  MOCLDY    19  10  68 NE12      30.12R WCI   7
ASHTABULA      LGT SNOW  16  10  77 NW8       30.08R WCI   5
AKRON-CANTON   FLURRIES  19  11  70 N10       30.05S WCI   7
WOOSTER        MOCLDY    19  13  77 N7        30.08R WCI  10
MANSFIELD      LGT SNOW  18  15  88 N9        30.07R FOG     WCI   7
YOUNGSTOWN     FLURRIES  18   9  68 N12       30.04S WCI   5
$$

OHZ042-051>053-060>062-070>072-077>081-280500-
  SOUTHWEST OHIO

CITY           SKY/WX    TMP DP  RH WIND       PRES   REMARKS
CINC-COVINGTON CLOUDY    28  10  46 NW10      30.11R WCI  19
CINC-LUNKEN    CLOUDY    28  14  55 N7        30.14R WCI  21
HAMILTON       CLOUDY    28  12  51 N12       30.13R WCI  18
DAYTON         MOCLDY    26  14  60 N5        30.11R WCI  20
WRIGHT-PAT AFB PTCLDY    23  13  66 N6        30.10R WCI  16
DAYTON GENERAL CLOUDY    27  12  53 NW13      30.09R WCI  16
WILMINGTON     CLOUDY    25  16  68 N7        30.08R WCI  17
$$

OHZ036-037-039>041-045>050-054>059-063>069-073>076-082>088-280500-
  CENTRAL AND SOUTHEAST OHIO

CITY           SKY/WX    TMP DP  RH WIND       PRES   REMARKS
COLUMBUS       PTCLDY    23  16  74 N12       30.09R WCI  12
OSU AIRPORT    PTCLDY    22  16  78 N9        30.09R WCI  12
BOLTON FIELD   MOCLDY   N/A N/A N/A NW6       30.10R
RICKENBACK AFB PTCLDY    23  14  68 NW8       30.09R WCI  14
NEWARK         LGT SNOW  24  18  77 N7        30.07R WCI  16
MARION         MOCLDY    17  14  88 N7        30.10R WCI   8
LANCASTER      CLOUDY    26  17  68 N8        30.08R WCI  18
ZANESVILLE     LGT SNOW  23  18  81 N10       30.06R WCI  12
NEW PHILLY     LGT SNOW  23  14  68 N9        30.07S WCI  13
$$


USA.gov is the U.S. government's official web portal to all federal, state and local government web resources and services.